Weather History for Syracuse, NY

Change the Weather History Date:

Tuesday, July 30, 2013

  Actual Average Record
Temperature  
Mean Temperature 68 °F 71 °F  
Max Temperature 76 °F 82 °F 97 °F (1933)
Min Temperature 60 °F 61 °F 47 °F (1965)
Degree Days  
Heating Degree Days 0 0  
Month to date heating degree days 3 2  
Since 1 June heating degree days 64 63  
Since 1 July heating degree days 3 2  
Cooling Degree Days 3 7  
Month to date cooling degree days 299 202  
Year to date cooling degree days 475 345  
Since 1 June cooling degree days 423 315  
Growing Degree Days 18 (Base 50)    
Moisture  
Dew Point 56 °F    
Average Humidity 68    
Maximum Humidity 90    
Minimum Humidity 46    
Precipitation  
Precipitation 0.00 in 0.11 in 2.50 in (1986)
Month to date precipitation 3.22 3.66  
Year to date precipitation 23.96 20.90  
Snow  
Snow 0.00 in 0.00 in 0.00 in (2002)
Month to date snowfall 0.0 0.0  
Since 1 June snowfall 0.0 0.0  
Since 1 July snowfall 0.0 0.0  
Snow Depth 0.00 in    
Sea Level Pressure  
Sea Level Pressure 30.14 in    
Wind  
Wind Speed 8 mph (West)    
Max Wind Speed 17 mph    
Max Gust Speed 22 mph    
Visibility 10 miles    
Events      
T = Trace of Precipitation, MM = Missing Value Source: NWS Daily Summary

Daily Weather History Graph

Daily Weather History Graph

Search for Another Location

Airport:

Trip Planner

Search our weather history database for the weather conditions in past years. The results will help you decide how hot, cold, wet, or windy it might be!

Date:

Astronomy

Jul. 30, 2013 Rise Set
Actual Time 5:53 AM EDT 8:27 PM EDT
Civil Twilight 5:20 AM EDT 9:00 PM EDT
Nautical Twilight 4:39 AM EDT 9:40 PM EDT
Astronomical Twilight 3:53 AM EDT 10:26 PM EDT
Moon 12:11 AM EDT (7/30) 2:45 PM EDT (7/30)
Length of Visible Light 15h 39m
Length of Day
14h 34m
Last Quarter, 41% of the Moon is Illuminated
Jul 30
Last Quarter
Aug 6
New
Aug 14
First Quarter
Aug 20
Full
Aug 28
Last Quarter

Hourly Weather History & Observations

Time (EDT) Temp. Dew Point Humidity Pressure Visibility Wind Dir Wind Speed Gust Speed Precip Events Conditions
12:54 AM 62.1 °F 55.9 °F 80% 30.11 in 10.0 mi SW 5.8 mph - N/A   Scattered Clouds
1:54 AM 62.1 °F 55.9 °F 80% 30.12 in 10.0 mi SW 6.9 mph - N/A   Mostly Cloudy
2:54 AM 63.0 °F 57.0 °F 81% 30.12 in 10.0 mi WSW 8.1 mph - N/A   Overcast
3:54 AM 62.1 °F 55.9 °F 80% 30.11 in 10.0 mi WSW 9.2 mph - N/A   Scattered Clouds
4:54 AM 61.0 °F 55.9 °F 83% 30.12 in 10.0 mi WSW 9.2 mph - N/A   Scattered Clouds
5:54 AM 61.0 °F 55.9 °F 83% 30.13 in 10.0 mi WSW 11.5 mph - N/A   Mostly Cloudy
6:54 AM 61.0 °F 57.0 °F 87% 30.14 in 10.0 mi West 8.1 mph - N/A   Scattered Clouds
7:54 AM 64.0 °F 57.9 °F 80% 30.16 in 10.0 mi WSW 8.1 mph - N/A   Mostly Cloudy
8:54 AM 64.9 °F 57.9 °F 78% 30.18 in 10.0 mi West 8.1 mph - N/A   Overcast
9:54 AM 66.9 °F 59.0 °F 76% 30.18 in 10.0 mi West 8.1 mph - N/A   Mostly Cloudy
10:54 AM 69.1 °F 57.9 °F 68% 30.18 in 10.0 mi West 9.2 mph - N/A   Mostly Cloudy
11:54 AM 69.1 °F 57.9 °F 68% 30.18 in 10.0 mi West 10.4 mph - N/A   Mostly Cloudy
12:54 PM 72.0 °F 59.0 °F 64% 30.16 in 10.0 mi West 6.9 mph - N/A   Mostly Cloudy
1:54 PM 73.9 °F 57.0 °F 55% 30.15 in 10.0 mi WNW 15.0 mph 19.6 mph N/A   Scattered Clouds
2:54 PM 75.0 °F 57.9 °F 55% 30.13 in 10.0 mi WNW 11.5 mph - N/A   Scattered Clouds
3:54 PM 75.0 °F 55.9 °F 51% 30.12 in 10.0 mi West 12.7 mph 19.6 mph N/A   Scattered Clouds
4:54 PM 75.0 °F 55.0 °F 50% 30.12 in 10.0 mi West 11.5 mph - N/A   Scattered Clouds
5:54 PM 75.0 °F 54.0 °F 48% 30.12 in 10.0 mi West 11.5 mph - N/A   Mostly Cloudy
6:54 PM 71.1 °F 54.0 °F 55% 30.13 in 10.0 mi WNW 10.4 mph - N/A   Overcast
7:54 PM 69.1 °F 54.0 °F 58% 30.14 in 10.0 mi West 5.8 mph - N/A   Overcast
8:54 PM 66.0 °F 55.0 °F 68% 30.13 in 10.0 mi West 3.5 mph - N/A   Overcast
9:54 PM 62.1 °F 55.9 °F 80% 30.14 in 10.0 mi Calm Calm - N/A   Mostly Cloudy
10:54 PM 64.0 °F 55.9 °F 75% 30.14 in 10.0 mi Calm Calm - N/A   Mostly Cloudy
11:54 PM 61.0 °F 57.0 °F 87% 30.14 in 10.0 mi Calm Calm - N/A   Mostly Cloudy